This demonstration page uses our WeatherBlox Daily Observations layout. Learn more.

Left ArrowRight Arrow

38.83388, -104.82136

Hourly Observations for May 24, 2018

Temp ( °F °C ) Dew Point ( °F °C ) Humidity (%) Winds ( mph kmh ) Pressure ( in mb ) Visibility ( mi km ) Precip ( " mm )
12:58 am 00:58 Clear 67 19.2 24 -4.7 19 19 WNW 12 19 29.54 1000 10 16 0.00 0.00
1:58 am 01:58 Clear 66 19 27 -2.8 23 23 WNW 12 19 29.54 1000 10 16 0.00 0.00
2:58 am 02:58 Clear 65 18.3 26 -3.1 23 23 NW 10 17 29.54 1000 10 16 0.00 0.00
3:58 am 03:58 Partly Cloudy 63 17.2 23 -4.8 22 22 WNW 9 15 29.56 1001 10 16 0.00 0.00
4:58 am 04:58 Clear 59 15.2 23 -5.1 24 24 Calm 29.59 1002 10 16 0.00 0.00
5:58 am 05:58 Partly Cloudy 59 15.2 24 -4.2 26 26 WNW 7 11 29.61 1003 10 16 0.00 0.00
6:58 am 06:58 Sunny 61 16.1 30 -1.2 31 31 WNW 5 7 29.63 1004 10 16 0.00 0.00
7:58 am 07:58 Mostly Sunny 65 18.5 28 -2.5 24 24 NNW 8 13 29.63 1003 10 16 0.00 0.00
8:58 am 08:58 Sunny 67 19.4 37 2.8 33 33 N 7 11 29.65 1004 10 16 0.00 0.00
9:58 am 09:58 Mostly Cloudy 71 21.8 35 1.4 26 26 NNE 6 9 29.62 1003 10 16 0.00 0.00
10:58 am 10:58 Mostly Cloudy 69 20.7 31 -0.5 24 24 SSE 3 6 29.63 1003 10 16 0.00 0.00
11:58 am 11:58 Mostly Sunny 76 24.3 33 0.3 21 21 ESE 7 11 29.60 1002 10 16 0.00 0.00
12:58 pm 12:58 Mostly Cloudy 75 23.9 20 -6.5 13 13 Calm 29.58 1002 10 16 0.00 0.00
1:58 pm 13:58 Mostly Cloudy 75 24 20 -6.9 12 12 SE 5 7 29.58 1002 10 16 0.00 0.00
2:58 pm 14:58 Mostly Cloudy 74 23.6 20 -6.4 13 13 E 7 11 29.57 1001 10 16 0.00 0.00
3:58 pm 15:58 Mostly Cloudy 76 24.3 17 -8.2 11 11 Calm 29.56 1001 10 16 0.00 0.00
4:58 pm 16:58 Partly Cloudy 73 22.9 31 -0.5 21 21 SSE 9 15 29.59 1002 10 16 0.00 0.00
5:58 pm 17:58 Mostly Cloudy 72 22 33 0.6 24 24 NNE 9 15 29.61 1003 10 16 0.00 0.00
6:58 pm 18:58 Mostly Cloudy 69 20.8 34 1.3 27 27 NNE 6 9 29.61 1003 10 16 0.00 0.00
7:58 pm 19:58 Mostly Cloudy 68 19.9 34 1 28 28 WNW 7 11 29.62 1003 10 16 0.00 0.00
8:58 pm 20:58 Clear 66 18.9 33 0.6 29 29 S 6 9 29.65 1004 10 16 0.00 0.00
9:58 pm 21:58 Partly Cloudy 64 17.9 33 0.6 31 31 S 5 7 29.65 1004 10 16 0.00 0.00
10:58 pm 22:58 Clear 66 18.7 33 0.3 29 29 S 8 13 29.66 1004 10 16 0.00 0.00
11:56 pm 23:56 Clear 61 16 34 1 36 36 SSW 14 22 29.65 1004 10 16 0.00 0.00
11:58 pm 23:58 Clear 61 15.9 35 1.4 38 38 SSW 13 20 29.65 1004 10 16 0.00 0.00

Powered by AerisWeather